User: anonymous   Login
Location: Erdweis
(48.5167°N, 15.3500°E)
Time: 19:03:58
(UTC+00:00)
Language:

Cosmos 1743 - Orbit

View from above orbital plane
View from above orbital plane
View from above satellite
View from above satellite

Ground track
Ground track

The orbit data is extracted from the following two-line orbital elements,

1 16719U 86034A   20330.92752534 +.00001058 +00000-0 +53701-4 0  9994
2 16719 082.5532 199.1682 0010475 242.3285 128.3751 15.15812721885898
Epoch (UTC): 25 November 2020 22:15:38
Eccentricity: 0.0010475
inclination: 82.5532°
perigee height: 511 km
apogee height: 526 km
right ascension of ascending node: 199.1682°
argument of perigee: 242.3285°
revolutions per day: 15.15812721
mean anomaly at epoch: 128.3751°
orbit number at epoch: 88589

The dashed part of the orbit path shows where the satellite is in the earth's shadow,  

DLR